Simultaneous Nadir Overpasses (SNOs) Predictions

Prediction of SNOs between FY3D and TERRA Satellite Orbit:

Table of predicted SNOs for the next 14.0 days since TLE Epoch: 8/19/2023
Index Date (FY3D) Time (FY3D) Lat,Lon (FY3D) SZA (FY3D ) Date (TERRA) Time (TERRA) Lat,Lon (TERRA) SZA (TERRA ) Distance(km) Time Diff (sec)
1 08/20/2023 12:26:42 73.97, -6.77 61.46 08/20/2023 12:27:32 73.95, -6.73 61.44 2.16 50
2 08/20/2023 13:17:25 -73.90, 160.71 118.60 08/20/2023 13:16:56 -73.88, 160.77 118.63 2.99 29
3 08/23/2023 00:30:44 -73.93, -7.66 117.75 08/23/2023 00:31:28 -73.95, -7.75 117.74 2.97 44
4 08/23/2023 01:21:30 73.89, 159.76 62.22 08/23/2023 01:20:51 73.88, 159.75 62.21 1.37 39
5 08/25/2023 12:34:50 73.98, -8.77 63.16 08/25/2023 12:35:22 73.97, -8.70 63.14 2.47 32
6 08/25/2023 13:25:33 -73.91, 158.74 116.91 08/25/2023 13:24:46 -73.90, 158.80 116.92 1.95 47
7 08/28/2023 00:38:52 -73.95, -9.66 116.00 08/28/2023 00:39:17 -73.97, -9.71 115.99 2.44 25
8 08/28/2023 01:29:38 73.92, 157.73 63.98 08/28/2023 01:28:40 73.89, 157.79 63.95 3.09 58
9 08/30/2023 12:42:56 73.98, -10.71 64.91 08/30/2023 12:43:09 73.99, -10.66 64.93 2.09 13
10 08/30/2023 13:33:39 -73.89, 156.83 115.17 08/30/2023 13:32:34 -73.87, 156.73 115.19 3.36 65
11 09/01/2023 23:56:24 74.48, 179.70 66.31 09/01/2023 23:57:33 74.37,-178.45 66.20 56.49 69
12 09/02/2023 00:46:59 -74.00, -11.73 114.17 09/02/2023 00:47:03 -74.00, -11.65 114.17 2.46 4



Historial Predications of SNOs between FY3D and TERRA
